Погода Купино

Погода Купино : погода сейчас, прогноз погоды и архив. Всё, что Вы хотите узнать о погоде Купино!

Хотите узнать прогноз погоды Купино? Тогда Вам сюда: Погода Купино

Поиск расширенной информации на нашем сайте:

Полезная информация: Сауны и бани воронежа цены.

Другие новости

Новости СМИ2

Главная страница сайта

Новости сайта

02.10.2013

Напоминаем, что на нашем новом сайте вы можете получить высокодетализированные прогнозы погоды по пунктам России, СНГ и мира (включающие важные для авиации метеовеличины, такие как направление и скорость ветра, видимость, явления погоды, количество и форма облачности, нижняя и верхняя граница облачности), а также ознакомиться с разнообразными материалами по авиационной метеорологии и подборкой полезных ссылок на эту тему.

Сайт Метеоцентр.Азия посвящён разработке технологий оптимизации авиаметеорологического обслуживания, включая проектирование и перспективное создание нескольких автоматизированных авиаметеорологических систем:
- система выпуска высокодетальных прогностических карт явлений погоды для нижнего воздушного пространства по России и ближнему зарубежью;
- система верификации прогнозов TAF (выпускаемых синоптиками официальных АМСГ РФ и ближнего зарубежья) и AUTOTAF (выпускаемых сайтом Метеоцентр.Азия) - выявление ошибок, онлайн-сопоставление с фактической погодой METAR, автоматическое внесение коррективов в прогнозы при резком отклонении фактической погоды от прогноза, подсчёт оправдываемости прогнозов по элементам и в целом;
- система обработки, анализа и отображения авиаметеорологической информации для применения провайдерами метеорологической информации.

Рекомендуем: Откачка ям - выгребная яма на 3 куба откачка www.don-p.ru.

Погода Купино - сегодня

Время (UTC), дата Ветер
(°,м/с) 
Видим.   Явления Облачность Т
(°С)
Тd
(°С)
f(%) Тe
(°С)
Pmin
(гПа)
dP
(гПа)
Po
(мм)
O2
(г/м3)
Тmin Tmax R s Состояние
почвы
06 24.03.17 140 (ЮВ) 7-10{11}  20000 м    8/0 верхняя 
[Ci fib]
-1.5 -8.1 61 -6  1026.1  -3.3  759  308           
09 24.03.17 150 (ЮВ) 7-10{11}  20000 м    6/0 верхняя 
[Ci fib]
+0.2 -5.7 64 -4  1022.4  -3.5  756  305           
12 24.03.17 150 (ЮВ) 5{11}  20000 м    10/0 верхняя 
[Ci fib]
-1 -5.7 70 -4  1019.9  -2.6  754  306    +0.3       
15 24.03.17 150 (ЮВ) 5{10}  20000 м    10/6 1000 м верхняя 
[Sc|Ci fib]
-1 -4.8 75 -4  1017.8  -2.1  752  305           
18 24.03.17 170 (Ю) 20000 м    10/10 1000 м 
[Sc]
-0 -1.6 89 -2  1014.6  -3  750  302           
21 24.03.17 180 (Ю) 20000 м    10/10 1000 м 
[Sc]
+0.2 -0.7 94 -2  1012.7  -1.9  749  302           
00 25.03.17 210 (ЮЗ) 20000 м    10/10 600 м кучево-дожд. 
[Cb calv]
+0.6 -0.3 94 -2  1011.8  -0.9  748  301  -1.1      14  неравномерный
мокрый или
старый снег
100% 
03 25.03.17 240 (ЮЗ) 7-10{10}  20000 м  {ливн. осадки}  10/10 300 м кучево-дожд. 
[Cb calv]
+0.1 -1.3 90 -4  1012.6  0.8  749  302           
06 25.03.17 260 (З) 8-10{11}  10 км  слаб. ливневой снег  10/10 300 м кучево-дожд. 
[Cb calv]
-3.3 -4.6 91 -8  1014.2  1.4  750  306           
09 25.03.17 260 (З) 7-10{11}  20000 м  {ливн. осадки}  6/4 300 м средняя 
[Frnb|Ac trans]
-1.3 -4.2 81 -5  1016.1  1.9  751  305           
12 25.03.17 260 (З) 5{11}  20000 м  {ливн. осадки}  6/6 1000 м 
[Sc]
-1.1 -3.6 83 -4  1018  753  305    +0.7  0.3     
15 25.03.17 270 (З) 20000 м    ясно 
-3.2 -5 87 -7  1020.6  2.4  754  308           
18 25.03.17 250 (З) 20000 м    ясно 
-7.1 -8.3 91 -9  1022.9  756  314           
21 25.03.17 240 (ЮЗ) 20000 м    ясно 
-9.2 -10.4 91 -12  1025.2  2.2  758  317           
00 26.03.17 230 (ЮЗ) 4000 м  дымка  ясно 
-11.6 -13.1 89 -11  1026.3  0.9  758  320  -11.6      14  неравномерный
мокрый или
старый снег
100% 
03 26.03.17 210 (ЮЗ) 4000 м  дымка  8/0 верхняя 
[Ci sp]
-7.9 -9.1 91 -8  1026.4  0.4  759  316  -12         
06 26.03.17 180 (Ю) 4000 м  дымка  10/0 средняя, верхняя 
[As trans|Cs]
-4.6 -5.8 91 -8  1025.9  -0.4  758  311           
09 26.03.17 150 (ЮВ) 2000 м  дымка  10/10 300 м 
[St]
-3.5 -4.4 93 -6  1023.6  -2.1  757  309           
12 26.03.17 150 (ЮВ) 2000 м  дымка  10/10 300 м 
[St]
-3.6 -4.3 95 -7  1020.7  -3  754  309    -3.3       
15 26.03.17 140 (ЮВ) 4000 м  дымка  10/10 300 м 
[St]
-2.9 -3.9 93 -6  1017.5  -3  752  307           
18 26.03.17 090 (В) 4000 м  дымка  10/10 300 м 
[St]
-3.6 -4.6 93 -5  1015  -2.5  750  307           
21 26.03.17 040 (СВ) 4000 м  дымка  10/10 300 м 
[St]
-4.3 -5 95 -7  1013.3  -1.8  749  307           
00 27.03.17 020 (С) 4000 м  дымка{снег}  10/10 300 м 
[Ns]
-4.2 -4.9 95 -6  1012.4  -0.9  748  307  -4.4    0.2  14  неравномерный
мокрый или
старый снег
100% 
03 27.03.17 290 (З) 10 км  слаб. снег  10/10 300 м 
[Ns]
-3.7 -4.6 93 -6  1014.5  2.1  750  307           
06 27.03.17 270 (З) 20000 м  {снег}  10/10 600 м 
[Sc]
-2.1 -3.5 90 -5  1015.9  1.5  751  305           
Время (UTC), дата Ветер
(°,м/с) 
Видим.   Явления Облачность Т
(°С)
Тd
(°С)
f(%) Тe
(°С)
Pmin
(гПа)
dP
(гПа)
Po
(мм)
O2
(г/м3)
Тmin Tmax R s Состояние
почвы

Для получения пояснительной информации подведите курсор к названию столбца.

ПОГОДА Купино - архив

Всё, что Вы хотите узнать о погоде Купино - удобно и подробно!

Выберите нужную дату (начиная с 1 января 2015* года) и нажмите кнопку "Найти".
Будут отображены архивные сводки погоды по пункту Купино, начиная с указанной даты.


Отображать данные в формате CSV (для использования в таблицах Excel)


Внимание! Наш архив погоды предназначен исключительно для личного некоммерческого использования в познавательных целях. Если Вам необходимы официальные справки о состоянии погоды (для производственных, юридических, коммерческих и т.п. целей), обращайтесь в органы Росгидромета.

*Примечание: данная дата относится к архиву по метеостанциям СССР (Россия, СНГ, Балтия).
Архив по метеостанциям Зарубежной Европы и Азии (кроме Китая) хранится 10 дней, по другим регионам земного шара (Китай, Африка, Америка, Австралия, Океания) - 1 день.

Купино - район местоположения метеостанции


Название, широта, долгота, высота метеостанции:
Купино 54.4°ш. 77.3°д. 115 м над ур. моря [Российская Федерация]

Дополнительная информация

В oтличие oт бoльшинства пoгoдных сайтoв мы публикуем пoдрoбную метеoинфoрмацию в детальнoм прoфессиoнальнoм фoрмате.

Характеристики температуры и влажнoсти вoздуха измеряются на высoте 2 м в тени вдали oт зданий и деревьев.
Скoрoсть ветра измеряется на высoте 10 м (на урoвне рoста челoвека скoрoсть ветра ниже в 1.5-2 раза). Если метеoстанция нахoдится в гoрoде или в лесу, тo скoрoсть ветра занижена на 2-4 м/с пo сравнению с oткрытым местoм. Скoрoсть ветра над акватoриями крупных рек и oзёр, а также на вершинах хoлмoв на 2-5 м/с выше, чем в oбычных услoвиях.
Атмoсфернoе давление в разных тoчках местнoсти мoжет значительнo oтличаться oт давления на метеoстанции, в зависимoсти oт услoвий рельефа (при пoдъёме на 10 м давление пoнижается примернo на 1 мм рт.ст.).